Location: *
(60.1759°S, 155.0663°W)
Time: 02:39:35
(UTC+00:00)

IDEFIX/ARIANE 42P - Pass Details

Date: 17 September 2019
Orbit: 786 x 802 km, 98.3° (Epoch: 17 October)

Event Time Altitude Azimuth Distance (km) Brightness Sun altitude
Exits shadow 13:41:03 40° 308° (NW) 1,177 2.9 -20.0°
Maximum altitude 13:42:04 45° 278° (W) 1,098 2.9 -19.9°
Drops below altitude 10° 13:47:09 10° 205° (SSW) 2,400 5.1 -19.4°
Sets 13:49:37 0° 198° (SSW) 3,334 6.0 -19.1°
